Home   Weather   Mayhill   Past weeks
Flag for USA

Past Weather in Mayhill, New Mexico, USA — Yesterday and Last 2 Weeks

Now
70 °F

Sunny.


Feels Like: 70 °F
Forecast: 68 / 45 °F
Wind: 5 mph from Northwest

Location: Alamogordo-White

Current Time: Oct 21, 2019 at 5:29:41 pm

Latest Report: Oct 21, 2019 at 4:55 pm


Visibility: 10 mi

Pressure: 30.06 "Hg

Humidity: 10%

Dew Point: 10 °F

Location of MayhillLocation

Past Weather in Mayhill — Graph

°F

Mayhill Temperature Yesterday

Maximum temperature yesterday: 77 °F (at 2:35 pm)
Minimum temperature yesterday: 50 °F (at 3:55 am)
Average temperature yesterday: 64 °F

High & Low Weather Summary for the Past Weeks

 TemperatureHumidityPressure
High82 °F (Oct 6, 4:15 pm)100% (Oct 15, 4:55 am)30.37 "Hg (Oct 15, 4:55 am)
Low39 °F (Oct 12, 2:35 am)8% (Oct 20, 6:15 pm)29.80 "Hg (Oct 18, 3:15 pm)
Average62 °F45%30.06 "Hg
* Reported Oct 6 4:15 pm — Oct 21 4:15 pm, Mayhill. Weather by CustomWeather, © 2019

Note: Actual official high and low records may vary slightly from our data, if they occured in-between our weather recording intervals... More about our weather records

Advertising

Mayhill Weather History for the Previous 24 Hours

Scroll right to see more
 ConditionsComfort  
Time TempWeatherWind HumidityBarometerVisibility
4:15 pm
Mon, Oct 21
70 °FSunny.5 mph10%30.06 "Hg10 mi
3:35 pm68 °FSunny.5 mph10%30.05 "Hg10 mi
3:15 pm68 °FSunny.6 mph11%30.05 "Hg10 mi
2:55 pm68 °FSunny.7 mph11%30.06 "Hg10 mi
2:35 pm68 °FSunny.10 mph11%30.07 "Hg10 mi
2:15 pm68 °FSunny.10 mph11%30.07 "Hg10 mi
1:55 pm68 °FSunny.13 mph10%30.08 "Hg10 mi
1:35 pm68 °FSunny.14 mph10%30.09 "Hg10 mi
1:15 pm68 °FSunny.10 mph10%30.10 "Hg10 mi
12:55 pm66 °FSunny.12 mph11%30.10 "Hg10 mi
12:35 pm66 °FSunny.12 mph10%30.11 "Hg10 mi
12:15 pm66 °FSunny.15 mph10%30.11 "Hg10 mi
11:55 am66 °FSunny.14 mph10%30.12 "Hg10 mi
11:35 am64 °FSunny.17 mph11%30.12 "Hg10 mi
11:15 am64 °FSunny.18 mph11%30.12 "Hg10 mi
10:55 am64 °FSunny.16 mph11%30.12 "Hg10 mi
10:35 am63 °FSunny.16 mph11%30.13 "Hg10 mi
10:15 am63 °FSunny.17 mph11%30.12 "Hg10 mi
9:55 am63 °FSunny.18 mph11%30.13 "Hg10 mi
9:35 am59 °FSunny.14 mph14%30.14 "Hg10 mi
9:15 am55 °FSunny.8 mph16%30.13 "Hg10 mi
8:55 am54 °FSunny.9 mph16%30.11 "Hg10 mi
8:35 am50 °FSunny.9 mph20%30.11 "Hg10 mi
8:15 am48 °FSunny.12 mph20%30.10 "Hg10 mi
7:55 am43 °FSunny.7 mph26%30.08 "Hg10 mi
7:35 am43 °FSunny.8 mph24%30.08 "Hg10 mi
7:15 am45 °FSunny.10 mph23%30.07 "Hg10 mi
6:55 am45 °FClear.10 mph23%30.06 "Hg10 mi
6:35 am43 °FClear.9 mph26%30.05 "Hg10 mi
6:15 am45 °FClear.9 mph25%30.05 "Hg10 mi
5:55 am45 °FClear.10 mph25%30.04 "Hg10 mi
5:35 am46 °FClear.10 mph20%30.04 "Hg10 mi
5:15 am45 °FClear.12 mph25%30.04 "Hg10 mi
4:55 am46 °FClear.12 mph23%30.03 "Hg10 mi
4:35 am48 °FClear.13 mph20%30.03 "Hg10 mi
4:15 am46 °FClear.10 mph21%30.03 "Hg10 mi
3:35 am50 °FClear.13 mph19%30.02 "Hg10 mi
2:55 am50 °FClear.14 mph19%30.02 "Hg10 mi
2:35 am50 °FClear.15 mph20%30.02 "Hg10 mi
2:15 am46 °FClear.13 mph27%30.02 "Hg10 mi
1:55 am48 °FClear.10 mph25%30.02 "Hg10 mi
1:35 am48 °FClear.14 mph25%30.01 "Hg10 mi
1:15 am48 °FClear.12 mph25%30.01 "Hg10 mi
12:55 am50 °FClear.13 mph24%30.01 "Hg10 mi
12:35 am50 °FClear.12 mph24%30.01 "Hg10 mi
12:15 am54 °FClear.13 mph21%30.01 "Hg10 mi
11:55 pm
Sun, Oct 20
59 °FClear.9 mph14%29.99 "Hg10 mi
11:35 pm57 °FClear.8 mph18%29.99 "Hg10 mi
11:15 pm61 °FClear.15 mph13%29.97 "Hg10 mi
10:55 pm61 °FClear.12 mph13%29.96 "Hg10 mi
10:35 pm63 °FClear.10 mph13%29.97 "Hg10 mi
10:15 pm63 °FClear.14 mph13%29.96 "Hg10 mi
9:55 pm59 °FClear.9 mph14%29.95 "Hg10 mi
9:35 pm61 °FClear.10 mph13%29.94 "Hg10 mi
8:55 pm59 °FClear.9 mph14%29.93 "Hg10 mi
8:35 pm64 °FClear.12 mph11%29.92 "Hg10 mi
8:15 pm66 °FClear.15 mph9%29.92 "Hg10 mi
7:55 pm66 °FClear.13 mph9%29.91 "Hg10 mi
7:35 pm68 °FClear.15 mph9%29.90 "Hg10 mi
7:15 pm68 °FClear.16 mph9%29.88 "Hg10 mi
6:55 pm70 °FClear.17 mph8%29.87 "Hg10 mi
6:15 pm73 °FSunny.15 mph8%29.84 "Hg10 mi
5:55 pm75 °FSunny.14 mph10%29.83 "Hg10 mi
5:35 pm77 °FSunny.14 mph11%29.82 "Hg10 mi
5:15 pm77 °FSunny.12 mph11%29.82 "Hg10 mi
Weather by CustomWeather, © 2019

See weather overview